DW2227 Weather Reports


Display with metric or nautical units.
time (UTC)temp
F
wind
direction
speed
MPH
gust
MPH
rain 1hr
in
rain 24hr
in
rain mn
in
humidity
%
barometer
mb
20200703232331 85 86 0.0 0.0 0.00 0.00 0.00 63 1016.2
20200703231826 85 86 0.0 0.0 0.00 0.00 0.00 63 1016.2
20200703231319 86 86 0.0 0.0 0.00 0.00 0.00 63 1016.1
20200703230836 86 85 0.0 0.0 0.00 0.00 0.00 61 1016.2
20200703230332 86 85 0.0 0.0 0.00 0.00 0.00 64 1016.1
20200703225823 86 85 0.0 0.0 0.00 0.00 0.00 62 1016.1
20200703225336 86 86 0.0 0.0 0.00 0.00 0.00 60 1016.2
20200703224829 87 86 0.0 0.0 0.00 0.00 0.00 61 1016.2
20200703224325 87 86 0.0 0.0 0.00 0.00 0.00 59 1016.1
20200703223819 87 86 0.0 0.0 0.00 0.00 0.00 57 1016.1
20200703223332 87 85 0.0 0.0 0.00 0.00 0.00 57 1016.1
20200703222827 87 85 0.0 0.0 0.00 0.00 0.00 62 1016.1
20200703222323 87 85 0.0 0.0 0.00 0.00 0.00 61 1016.2
20200703221834 87 85 0.0 0.0 0.00 0.00 0.00 61 1016.3
20200703221330 87 85 0.0 0.0 0.00 0.00 0.00 60 1016.3
20200703220819 87 85 0.0 0.0 0.00 0.00 0.00 61 1016.3
20200703220333 87 85 0.0 0.0 0.00 0.00 0.00 57 1016.3
20200703215827 87 86 0.0 0.0 0.00 0.00 0.00 56 1016.3
20200703215321 87 86 0.0 0.0 0.00 0.00 0.00 55 1016.4
20200703214829 88 86 0.0 0.0 0.00 0.00 0.00 54 1016.5
20200703214323 89 86 0.0 0.0 0.00 0.00 0.00 56 1016.5
20200703213820 89 86 0.0 0.0 0.00 0.00 0.00 56 1016.5
20200703213338 88 86 0.0 0.0 0.00 0.00 0.00 52 1016.5
20200703212820 88 90 0.0 0.0 0.00 0.00 0.00 54 1016.6
20200703212334 88 90 0.0 0.0 0.00 0.00 0.00 55 1016.4
20200703211828 88 90 0.0 0.0 0.00 0.00 0.00 56 1016.6
20200703211324 88 90 0.0 0.0 0.00 0.00 0.00 56 1016.5
20200703210817 88 90 0.0 0.0 0.00 0.00 0.00 51 1016.5
20200703210331 89 90 0.0 0.0 0.00 0.00 0.00 55 1016.4
20200703205827 89 90 0.0 0.0 0.00 0.00 0.00 57 1016.5
20200703205323 88 90 0.0 0.0 0.00 0.00 0.00 55 1016.6
20200703204836 89 90 0.0 0.0 0.00 0.00 0.00 59 1016.7
20200703204329 88 86 0.0 0.0 0.00 0.00 0.00 59 1016.6
20200703203824 88 86 0.0 0.0 0.00 0.00 0.00 58 1016.6
20200703203316 88 85 0.0 0.0 0.00 0.00 0.00 57 1016.8
20200703202830 88 85 0.0 0.0 0.00 0.00 0.00 54 1016.8
20200703202327 88 85 0.0 0.0 0.00 0.00 0.00 54 1016.9
20200703201820 88 85 0.0 0.0 0.00 0.00 0.00 54 1016.9
20200703201336 88 84 0.0 0.0 0.00 0.00 0.00 54 1016.8
20200703200829 88 87 0.0 0.0 0.00 0.00 0.00 53 1016.9
20200703200323 88 87 0.0 0.0 0.00 0.00 0.00 56 1017.0
20200703195835 88 87 0.0 0.0 0.00 0.00 0.00 55 1017.0
20200703195330 89 87 0.0 0.0 0.00 0.00 0.00 57 1017.0
20200703194824 89 87 0.0 0.0 0.00 0.00 0.00 52 1017.0
20200703194318 89 87 0.0 0.0 0.00 0.00 0.00 52 1017.0
20200703193835 89 87 0.0 0.0 0.00 0.00 0.00 58 1017.0
20200703193326 89 87 0.0 0.0 0.00 0.00 0.00 55 1017.1
20200703192819 89 87 0.0 0.0 0.00 0.00 0.00 57 1017.1
20200703192334 89 87 0.0 0.0 0.00 0.00 0.00 54 1017.3
20200703191827 89 87 0.0 0.0 0.00 0.00 0.00 51 1017.4
20200703191323 88 87 0.0 0.0 0.00 0.00 0.00 52 1017.3
20200703190825 88 87 0.0 0.0 0.00 0.00 0.00 54 1017.4
20200703190334 88 87 0.0 0.0 0.00 0.00 0.00 54 1017.3
20200703185829 89 87 0.0 0.0 0.00 0.00 0.00 53 1017.4
20200703185323 89 87 0.0 0.0 0.00 0.00 0.00 53 1017.5
20200703184817 89 87 0.0 0.0 0.00 0.00 0.00 52 1017.5
20200703184332 89 87 0.0 0.0 0.00 0.00 0.00 56 1017.5
20200703183827 89 87 0.0 0.0 0.00 0.00 0.00 52 1017.6
20200703183323 89 87 0.0 0.0 0.00 0.00 0.00 53 1017.6
20200703182817 89 118 0.0 0.0 0.00 0.00 0.00 56 1017.6
20200703182328 88 118 0.0 0.0 0.00 0.00 0.00 54 1017.5
20200703181820 88 118 0.0 0.0 0.00 0.00 0.00 55 1017.6
20200703181331 87 118 0.0 0.0 0.00 0.00 0.00 60 1017.5
20200703180820 87 118 0.0 0.0 0.00 0.00 0.00 57 1017.6
20200703180330 88 118 0.0 0.0 0.00 0.00 0.00 54 1017.6
20200703175825 88 118 0.0 0.0 0.00 0.00 0.00 52 1017.6
20200703175317 88 118 0.0 0.0 0.00 0.00 0.00 57 1017.7
20200703174830 88 118 0.0 0.0 0.00 0.00 0.00 59 1017.6
20200703174326 88 118 0.0 0.0 0.00 0.00 0.00 55 1017.6
20200703173840 87 118 0.0 0.0 0.00 0.00 0.00 59 1017.7
20200703173331 87 118 0.0 0.0 0.00 0.00 0.00 56 1017.9
20200703172827 87 118 0.0 0.0 0.00 0.00 0.00 64 1017.9
20200703172320 87 118 0.0 0.0 0.00 0.00 0.00 60 1018.1
20200703171832 87 118 0.0 0.0 0.00 0.00 0.00 61 1018.2
20200703171327 87 118 0.0 0.0 0.00 0.00 0.00 59 1018.1
20200703170821 87 118 0.0 0.0 0.00 0.00 0.00 61 1018.2
20200703170337 87 118 0.0 0.0 0.00 0.00 0.00 59 1018.2
20200703165831 87 118 0.0 0.0 0.00 0.00 0.00 62 1018.2
20200703165326 87 118 0.0 0.0 0.00 0.00 0.00 63 1018.2
20200703164819 87 118 0.0 0.0 0.00 0.00 0.00 62 1018.2
20200703164337 87 118 0.0 0.0 0.00 0.00 0.00 65 1018.2
20200703163828 86 118 0.0 0.0 0.00 0.00 0.00 64 1018.3
20200703163322 86 118 0.0 0.0 0.00 0.00 0.00 65 1018.2
20200703162817 86 118 0.0 0.0 0.00 0.00 0.00 65 1018.1
20200703162333 86 118 0.0 0.0 0.00 0.00 0.00 61 1018.1
20200703161826 86 118 0.0 0.0 0.00 0.00 0.00 67 1018.1
20200703161320 86 118 0.0 0.0 0.00 0.00 0.00 66 1018.3
20200703160835 86 118 0.0 0.0 0.00 0.00 0.00 65 1018.2
20200703160327 85 118 0.0 0.0 0.00 0.00 0.00 67 1018.2
20200703155820 85 118 0.0 0.0 0.00 0.00 0.00 68 1018.2
20200703155336 84 118 0.0 0.0 0.00 0.00 0.00 69 1018.1
20200703154831 84 118 0.0 0.0 0.00 0.00 0.00 70 1018.1
20200703154322 84 118 0.0 0.0 0.00 0.00 0.00 72 1018.2
20200703153837 83 118 0.0 0.0 0.00 0.00 0.00 71 1018.2
20200703153331 83 118 0.0 0.0 0.00 0.00 0.00 72 1018.1
20200703152823 83 118 0.0 0.0 0.00 0.00 0.00 74 1018.2
20200703152344 82 118 0.0 0.0 0.00 0.00 0.00 73 1018.2
20200703151831 82 118 0.0 0.0 0.00 0.00 0.00 72 1018.2
20200703151328 82 118 0.0 0.0 0.00 0.00 0.00 73 1018.2
20200703150822 82 118 0.0 0.0 0.00 0.00 0.00 75 1018.3
20200703150336 81 118 0.0 0.0 0.00 0.00 0.00 73 1018.4
20200703145830 81 118 0.0 0.0 0.00 0.00 0.00 75 1018.5
20200703145323 81 118 0.0 0.0 0.00 0.00 0.00 75 1018.4
20200703144817 80 118 0.0 0.0 0.00 0.00 0.00 77 1018.4
20200703144327 80 118 0.0 0.0 0.00 0.00 0.00 75 1018.4
20200703143822 80 118 0.0 0.0 0.00 0.00 0.00 77 1018.5
20200703143334 80 118 0.0 0.0 0.00 0.00 0.00 77 1018.5
20200703142829 79 118 0.0 0.0 0.00 0.00 0.00 78 1018.5
20200703142321 79 118 0.0 0.0 0.00 0.00 0.00 78 1018.5
20200703141817 79 118 0.0 0.0 0.00 0.00 0.00 80 1018.5
20200703141330 79 118 0.0 0.0 0.00 0.00 0.00 83 1018.5
20200703140822 79 118 0.0 0.0 0.00 0.00 0.00 81 1018.5
20200703140317 79 118 0.0 0.0 0.00 0.00 0.00 85 1018.5
20200703135833 78 118 0.0 0.0 0.00 0.00 0.00 84 1018.5
20200703135327 77 118 0.0 0.0 0.00 0.00 0.00 86 1018.6
20200703134820 77 118 0.0 0.0 0.00 0.00 0.00 85 1018.6
20200703134336 76 118 0.0 0.0 0.00 0.00 0.00 85 1018.6
20200703133829 76 118 0.0 0.0 0.00 0.00 0.00 89 1018.5
20200703133319 75 118 0.0 0.0 0.00 0.00 0.00 89 1018.6
20200703132836 75 118 0.0 0.0 0.00 0.00 0.00 89 1018.5
20200703132329 74 118 0.0 0.0 0.00 0.00 0.00 90 1018.3
20200703131822 74 118 0.0 0.0 0.00 0.00 0.00 92 1018.3
20200703131337 73 118 0.0 0.0 0.00 0.00 0.00 94 1018.3
20200703130828 73 118 0.0 0.0 0.00 0.00 0.00 95 1018.4
20200703130322 72 118 0.0 0.0 0.00 0.00 0.00 97 1018.2
20200703125818 72 118 0.0 0.0 0.00 0.00 0.00 98 1018.2
20200703125333 71 118 0.0 0.0 0.00 0.00 0.00 99 1018.3
20200703124824 71 118 0.0 0.0 0.00 0.00 0.00 99 1018.3
20200703124318 71 118 0.0 0.0 0.00 0.00 0.00 99 1018.3
20200703123835 71 118 0.0 0.0 0.00 0.00 0.00 99 1018.4
20200703123326 70 118 0.0 0.0 0.00 0.00 0.00 99 1018.5
20200703122819 70 118 0.0 0.0 0.00 0.00 0.00 99 1018.5
20200703122332 69 118 0.0 0.0 0.00 0.00 0.00 99 1018.6
20200703121827 69 118 0.0 0.0 0.00 0.00 0.00 99 1018.6
20200703121321 68 118 0.0 0.0 0.00 0.00 0.00 99 1018.5
20200703120834 68 118 0.0 0.0 0.00 0.00 0.00 98 1018.4
20200703120326 67 118 0.0 0.0 0.00 0.00 0.00 98 1018.3
20200703115820 67 118 0.0 0.0 0.00 0.00 0.00 98 1018.3
20200703115333 67 118 0.0 0.0 0.00 0.00 0.00 98 1018.3
20200703114828 66 118 0.0 0.0 0.00 0.00 0.00 98 1018.2
20200703114320 66 118 0.0 0.0 0.00 0.00 0.00 98 1018.1
20200703113834 66 118 0.0 0.0 0.00 0.00 0.00 98 1018.0
20200703113327 66 118 0.0 0.0 0.00 0.00 0.00 98 1017.8
20200703112832 66 118 0.0 0.0 0.00 0.00 0.00 98 1017.7
20200703112329 66 118 0.0 0.0 0.00 0.00 0.00 98 1017.7
20200703111823 66 118 0.0 0.0 0.00 0.00 0.00 98 1017.7
20200703111318 66 118 0.0 0.0 0.00 0.00 0.00 98 1017.6
20200703110835 66 118 0.0 0.0 0.00 0.00 0.00 98 1017.5
20200703110331 66 118 0.0 0.0 0.00 0.00 0.00 98 1017.5
20200703105821 66 118 0.0 0.0 0.00 0.00 0.00 97 1017.5
20200703105336 66 118 0.0 0.0 0.00 0.00 0.00 97 1017.6
20200703104829 66 118 0.0 0.0 0.00 0.00 0.00 97 1017.5
20200703104323 66 118 0.0 0.0 0.00 0.00 0.00 97 1017.6
20200703103838 66 118 0.0 0.0 0.00 0.00 0.00 97 1017.6
20200703103328 66 118 0.0 0.0 0.00 0.00 0.00 97 1017.7
20200703102844 66 118 0.0 0.0 0.00 0.00 0.00 97 1017.6
20200703102331 66 118 0.0 0.0 0.00 0.00 0.00 97 1017.5
20200703101826 67 118 0.0 0.0 0.00 0.00 0.00 97 1017.7
20200703101316 67 118 0.0 0.0 0.00 0.00 0.00 97 1017.8
20200703100837 67 118 0.0 0.0 0.00 0.00 0.00 97 1017.8
20200703100326 67 118 0.0 0.0 0.00 0.00 0.00 97 1017.7
20200703095842 67 118 0.0 0.0 0.00 0.00 0.00 97 1017.6
20200703095332 67 118 0.0 0.0 0.00 0.00 0.00 97 1017.4
20200703094824 67 118 0.0 0.0 0.00 0.00 0.00 97 1017.5
20200703094318 67 118 0.0 0.0 0.00 0.00 0.00 97 1017.4
20200703093832 67 118 0.0 0.0 0.00 0.00 0.00 97 1017.4
20200703093327 67 118 0.0 0.0 0.00 0.00 0.00 97 1017.4
20200703092822 67 118 0.0 0.0 0.00 0.00 0.00 97 1017.4
20200703092338 67 118 0.0 0.0 0.00 0.00 0.00 97 1017.3
20200703091829 67 118 0.0 0.0 0.00 0.00 0.00 97 1017.3
20200703091324 67 118 0.0 0.0 0.00 0.00 0.00 97 1017.3
20200703090819 67 118 0.0 0.0 0.00 0.00 0.00 97 1017.3
20200703090329 67 118 0.0 0.0 0.00 0.00 0.00 97 1017.2
20200703085823 67 118 0.0 0.0 0.00 0.00 0.00 97 1017.0
20200703085318 67 118 0.0 0.0 0.00 0.00 0.00 97 1016.9
20200703084830 68 118 0.0 0.0 0.00 0.00 0.00 97 1017.0
20200703084326 68 118 0.0 0.0 0.00 0.00 0.00 97 1016.9
20200703083819 68 118 0.0 0.0 0.00 0.00 0.00 97 1016.9
20200703083333 68 118 0.0 0.0 0.00 0.00 0.00 97 1016.8
20200703082826 68 118 0.0 0.0 0.00 0.00 0.00 97 1016.7
20200703082320 68 118 0.0 0.0 0.00 0.00 0.00 97 1016.8
20200703081830 68 118 0.0 0.0 0.00 0.00 0.00 97 1016.8
20200703081327 68 118 0.0 0.0 0.00 0.00 0.00 97 1016.9
20200703080820 68 118 0.0 0.0 0.00 0.00 0.00 97 1016.8
20200703080332 68 118 0.0 0.0 0.00 0.00 0.00 97 1016.8
20200703075827 68 118 0.0 0.0 0.00 0.00 0.00 97 1016.7
20200703075320 68 118 0.0 0.0 0.00 0.00 0.00 97 1016.6
20200703074835 68 118 0.0 0.0 0.00 0.00 0.00 97 1016.7
20200703074329 68 118 0.0 0.0 0.00 0.00 0.00 96 1016.7
20200703073828 68 118 0.0 0.0 0.00 0.00 0.00 96 1016.6
20200703073322 68 118 0.0 0.0 0.00 0.00 0.00 96 1016.7
20200703072833 68 118 0.0 0.0 0.00 0.00 0.00 96 1016.9
20200703072327 68 118 0.0 0.0 0.00 0.00 0.00 96 1016.8
20200703071821 68 118 0.0 0.0 0.00 0.00 0.00 96 1016.7
20200703071327 68 118 0.0 0.0 0.00 0.00 0.00 96 1016.8
20200703070823 68 118 0.0 0.0 0.00 0.00 0.00 96 1016.9
20200703070317 68 118 0.0 0.0 0.00 0.00 0.00 96 1016.8
20200703065832 68 118 0.0 0.0 0.00 0.00 0.00 96 1016.8
20200703065330 68 118 0.0 0.0 0.00 0.00 0.00 96 1016.7
20200703064821 68 118 0.0 0.0 0.00 0.00 0.00 96 1016.8
20200703064316 68 118 0.0 0.0 0.00 0.00 0.00 96 1016.8
20200703063832 68 118 0.0 0.0 0.00 0.00 0.00 96 1016.9
20200703063325 69 118 0.0 0.0 0.00 0.00 0.00 95 1017.0
20200703062817 69 118 0.0 0.0 0.00 0.00 0.00 95 1016.8
20200703062330 69 118 0.0 0.0 0.00 0.00 0.00 95 1016.8
20200703061824 69 118 0.0 0.0 0.00 0.00 0.00 95 1016.9
20200703061320 69 118 0.0 0.0 0.00 0.00 0.00 95 1017.0
20200703060834 69 118 0.0 0.0 0.00 0.00 0.00 95 1017.0
20200703060324 69 118 0.0 0.0 0.00 0.00 0.00 95 1016.9
20200703055818 69 118 0.0 0.0 0.00 0.00 0.00 95 1016.8
20200703055333 69 118 0.0 0.0 0.00 0.00 0.00 95 1016.9
20200703054824 69 118 0.0 0.0 0.00 0.00 0.00 95 1016.9
20200703054318 69 118 0.0 0.0 0.00 0.00 0.00 95 1016.9
20200703053833 69 118 0.0 0.0 0.00 0.00 0.00 95 1016.9
20200703053326 69 118 0.0 0.0 0.00 0.00 0.00 95 1017.0
20200703052818 69 118 0.0 0.0 0.00 0.00 0.00 95 1017.1
20200703052333 70 118 0.0 0.0 0.00 0.00 0.00 95 1017.1
20200703051826 70 118 0.0 0.0 0.00 0.00 0.00 94 1017.0
20200703051441 70 118 0.0 0.0 0.00 0.00 0.00 94 1017.0
20200703050823 70 118 0.0 0.0 0.00 0.00 0.00 94 1017.0
20200703050317 70 118 0.0 0.0 0.00 0.00 0.00 94 1017.0
20200703045824 70 118 0.0 0.0 0.00 0.00 0.00 94 1016.9
20200703045317 70 118 0.0 0.0 0.00 0.00 0.00 94 1016.9
20200703044832 70 118 0.0 0.0 0.00 0.00 0.00 94 1017.0
20200703044326 70 118 0.0 0.0 0.00 0.00 0.00 94 1017.1
20200703043823 71 118 0.0 0.0 0.00 0.00 0.00 94 1017.0
20200703043330 71 118 0.0 0.0 0.00 0.00 0.00 93 1017.1
20200703042823 71 118 0.0 0.0 0.00 0.00 0.00 93 1017.1
20200703042318 71 118 0.0 0.0 0.00 0.00 0.00 93 1017.1
20200703041831 71 118 0.0 0.0 0.00 0.00 0.00 93 1016.9
20200703041327 71 118 0.0 0.0 0.00 0.00 0.00 93 1016.9
20200703040822 71 118 0.0 0.0 0.00 0.00 0.00 93 1016.9
20200703040336 71 118 0.0 0.0 0.00 0.00 0.00 92 1016.9
20200703035828 71 118 0.0 0.0 0.00 0.00 0.00 92 1016.8
20200703035321 72 118 0.0 0.0 0.00 0.00 0.00 92 1016.8
20200703034817 72 118 0.0 0.0 0.00 0.00 0.00 92 1016.8
20200703034330 72 118 0.0 0.0 0.00 0.00 0.00 91 1016.7
20200703033825 72 118 0.0 0.0 0.00 0.00 0.00 91 1016.8
20200703033322 72 118 0.0 0.0 0.00 0.00 0.00 91 1016.7
20200703032833 72 118 0.0 0.0 0.00 0.00 0.00 90 1016.7
20200703032326 73 118 0.0 0.0 0.00 0.00 0.00 90 1016.7
20200703031842 73 118 0.0 0.0 0.00 0.00 0.00 89 1016.7
20200703031329 73 118 0.0 0.0 0.00 0.00 0.00 89 1016.7
20200703030824 73 118 0.0 0.0 0.00 0.00 0.00 89 1016.6
20200703030319 74 118 0.0 0.0 0.00 0.00 0.00 89 1016.5
20200703025833 74 118 0.0 0.0 0.00 0.00 0.00 88 1016.4
20200703025328 74 118 0.0 0.0 0.00 0.00 0.00 88 1016.3
20200703024822 74 118 0.0 0.0 0.00 0.00 0.00 87 1016.3
20200703024317 75 118 0.0 0.0 0.00 0.00 0.00 87 1016.1
20200703023828 75 118 0.0 0.0 0.00 0.00 0.00 87 1016.1
20200703023323 75 118 0.0 0.0 0.00 0.00 0.00 86 1016.0
20200703022817 76 118 0.0 0.0 0.00 0.00 0.00 85 1016.0
20200703022331 76 118 0.0 0.0 0.00 0.00 0.00 84 1016.0
20200703021826 76 118 0.0 0.0 0.00 0.00 0.00 82 1015.9
20200703021322 76 118 0.0 0.0 0.00 0.00 0.00 82 1015.9
20200703020832 77 118 0.0 0.0 0.00 0.00 0.00 80 1015.8
20200703020328 77 118 0.0 0.0 0.00 0.00 0.00 79 1015.8
20200703015823 77 118 0.0 0.0 0.00 0.00 0.00 79 1015.7
20200703015317 78 118 0.0 0.0 0.00 0.00 0.00 77 1015.8
20200703014829 79 118 0.0 0.0 0.00 0.00 0.00 76 1015.8
20200703014323 79 118 0.0 0.0 0.00 0.00 0.00 75 1015.9
20200703013818 79 118 0.0 0.0 0.00 0.00 0.00 73 1015.8
20200703013334 80 118 0.0 0.0 0.00 0.00 0.00 74 1015.8
20200703012830 80 118 0.0 0.0 0.00 0.00 0.00 71 1015.7
20200703012321 81 118 0.0 0.0 0.00 0.00 0.00 71 1015.9
20200703011834 81 118 0.0 0.0 0.00 0.00 0.00 71 1015.9
20200703011330 81 118 0.0 0.0 0.00 0.00 0.00 69 1015.9
20200703010839 82 118 0.0 0.0 0.00 0.00 0.00 69 1016.0
20200703010323 82 118 0.0 0.0 0.00 0.00 0.00 69 1016.0
20200703005816 82 118 0.0 0.0 0.00 0.00 0.00 68 1016.0
20200703005329 83 118 0.0 0.0 0.00 0.00 0.00 67 1016.0
20200703004823 83 118 0.0 0.0 0.00 0.00 0.00 67 1016.0
20200703004316 83 118 0.0 0.0 0.00 0.00 0.00 67 1016.1
20200703003834 84 118 0.0 0.0 0.00 0.00 0.00 68 1016.0
20200703003327 84 118 0.0 0.0 0.00 0.00 0.00 67 1015.9
20200703002820 84 118 0.0 0.0 0.00 0.00 0.00 66 1015.9
20200703002345 84 118 0.0 0.0 0.00 0.00 0.00 68 1016.0
20200703001831 84 118 0.0 0.0 0.00 0.00 0.00 65 1015.9
20200703001324 84 118 0.0 0.0 0.00 0.00 0.00 64 1015.8
20200703000818 85 118 0.0 0.0 0.00 0.00 0.00 63 1015.9
20200703000331 85 118 0.0 0.0 0.00 0.00 0.00 63 1015.9
20200702235820 85 118 0.0 0.0 0.00 0.00 0.00 62 1016.0
20200702235335 85 118 0.0 0.0 0.00 0.00 0.00 61 1016.0
20200702234828 85 118 0.0 1.0 0.00 0.00 0.00 61 1016.0
20200702234322 86 118 0.0 0.0 0.00 0.00 0.00 59 1016.0
20200702233830 86 118 0.0 0.0 0.00 0.00 0.00 61 1016.1
20200702233330 86 118 0.0 0.0 0.00 0.00 0.00 60 1016.0
20200702232827 86 118 0.0 0.0 0.00 0.00 0.00 58 1016.0